FW1318 Weather Reports


Display with metric or nautical units.
time (UTC)temp
F
wind
direction
speed
MPH
gust
MPH
rain 1hr
in
rain 24hr
in
rain mn
in
humidity
%
barometer
mb
20260906031602 89 0 0.0 0.0 0.00 0.00 0.00 66 1013.5
20260906031055 89 0 0.0 0.0 0.00 0.00 0.00 65 1013.4
20260906030552 89 0 0.0 0.0 0.00 0.00 0.00 65 1013.5
20260906030100 90 0 0.0 0.0 0.00 0.00 0.00 64 1013.5
20260906025552 89 0 0.0 0.0 0.00 0.00 0.00 63 1013.3
20260906025053 89 0 0.0 0.0 0.00 0.00 0.00 63 1013.4
20260906024604 89 0 0.0 0.0 0.00 0.00 0.00 63 1013.1
20260906024052 89 0 0.0 0.0 0.00 0.00 0.00 62 1013.1
20260906023552 88 0 0.0 0.0 0.00 0.00 0.00 61 1013.1
20260906023058 88 0 0.0 0.0 0.00 0.00 0.00 61 1013.0
20260906022554 88 0 0.0 0.0 0.00 0.00 0.00 61 1013.0
20260906022053 88 0 0.0 0.0 0.00 0.00 0.00 62 1012.9
20260906021609 88 0 0.0 0.0 0.00 0.00 0.00 60 1013.0
20260906021052 88 0 0.0 0.0 0.00 0.00 0.00 59 1012.9
20260906020553 89 0 0.0 0.0 0.00 0.00 0.00 59 1012.9
20260906020107 89 0 0.0 0.0 0.00 0.00 0.00 58 1012.8
20260906015555 89 0 0.0 0.0 0.00 0.00 0.00 58 1012.8
20260906015052 89 0 0.0 0.0 0.00 0.00 0.00 59 1012.7
20260906014603 89 0 0.0 0.0 0.00 0.00 0.00 58 1012.7
20260906014052 89 0 0.0 0.0 0.00 0.00 0.00 57 1012.7
20260906013552 90 0 0.0 0.0 0.00 0.00 0.00 57 1012.4
20260906013104 90 0 0.0 0.0 0.00 0.00 0.00 56 1012.4
20260906012557 91 0 0.0 0.0 0.00 0.00 0.00 56 1012.3
20260906012052 91 0 0.0 0.0 0.00 0.00 0.00 56 1012.3
20260906011603 91 0 0.0 0.0 0.00 0.00 0.00 55 1012.3
20260906011056 91 0 0.0 0.0 0.00 0.00 0.00 55 1012.1
20260906010552 91 0 0.0 0.0 0.00 0.00 0.00 54 1012.1
20260906010109 92 0 0.0 0.0 0.00 0.00 0.00 54 1012.0
20260906005553 92 0 0.0 0.0 0.00 0.00 0.00 53 1011.9
20260906005053 92 0 0.0 0.0 0.00 0.00 0.00 53 1011.9
20260906004618 93 0 0.0 0.0 0.00 0.00 0.00 52 1012.0
20260906004054 93 0 0.0 0.0 0.00 0.00 0.00 51 1011.9
20260906003554 94 0 0.0 0.0 0.00 0.00 0.00 51 1011.9
20260906003111 94 0 0.0 0.0 0.00 0.00 0.00 50 1011.9
20260906002553 95 0 0.0 0.0 0.00 0.00 0.00 50 1012.0
20260906002057 96 0 0.0 0.0 0.00 0.00 0.00 49 1011.9
20260906001617 96 0 0.0 0.0 0.00 0.00 0.00 48 1012.0
20260906001053 96 0 0.0 0.0 0.00 0.00 0.00 47 1012.0
20260906000556 97 0 0.0 0.0 0.00 0.00 0.00 48 1011.9
20260906000108 97 0 0.0 0.0 0.00 0.00 0.00 48 1011.9
20260905235553 98 0 0.0 0.0 0.00 0.00 0.00 47 1011.7
20260905235053 98 0 0.0 0.0 0.00 0.00 0.00 47 1012.1
20260905234602 98 0 0.0 0.0 0.00 0.00 0.00 48 1012.0
20260905234054 98 0 0.0 0.0 0.00 0.00 0.00 47 1012.1
20260905233555 98 0 0.0 0.0 0.00 0.00 0.00 47 1012.0
20260905233112 98 0 0.0 0.0 0.00 0.00 0.00 45 1012.1
20260905232555 98 0 0.0 1.0 0.00 0.00 0.00 45 1012.0
20260905232053 99 0 0.0 1.0 0.00 0.00 0.00 44 1012.2
20260905231603 99 0 0.0 1.0 0.00 0.00 0.00 43 1012.0
20260905231057 99 0 0.0 1.0 0.00 0.00 0.00 44 1012.1
20260905230554 99 0 0.0 0.0 0.00 0.00 0.00 42 1012.2
20260905230059 100 0 0.0 0.0 0.00 0.00 0.00 42 1012.1
20260905225551 101 0 0.0 0.0 0.00 0.00 0.00 41 1012.0
20260905225054 101 0 0.0 0.0 0.00 0.00 0.00 40 1011.9
20260905224609 102 0 0.0 0.0 0.00 0.00 0.00 41 1012.0
20260905224054 102 0 0.0 0.0 0.00 0.00 0.00 40 1011.8
20260905223553 102 0 0.0 0.0 0.00 0.00 0.00 42 1011.8
20260905223104 101 0 0.0 0.0 0.00 0.00 0.00 43 1011.9
20260905222553 101 0 0.0 1.0 0.00 0.00 0.00 43 1011.9
20260905222054 101 0 0.0 1.0 0.00 0.00 0.00 43 1012.0
20260905221603 101 0 0.0 1.0 0.00 0.00 0.00 44 1011.9
20260905221053 101 0 0.0 1.0 0.00 0.00 0.00 43 1011.9
20260905220553 102 0 0.0 0.0 0.00 0.00 0.00 43 1011.9
20260905220104 102 0 0.0 0.0 0.00 0.00 0.00 42 1011.9
20260905215554 101 0 0.0 1.0 0.00 0.00 0.00 43 1012.0
20260905215054 101 0 0.0 1.0 0.00 0.00 0.00 43 1011.9
20260905214603 102 0 0.0 5.0 0.00 0.00 0.00 43 1012.0
20260905214053 102 0 0.0 5.0 0.00 0.00 0.00 44 1011.8
20260905213551 101 0 0.0 4.0 0.00 0.00 0.00 43 1011.8
20260905213109 101 69 0.0 6.0 0.00 0.00 0.00 45 1011.8
20260905212555 100 0 0.0 6.0 0.00 0.00 0.00 45 1012.0
20260905212052 100 79 1.0 6.0 0.00 0.00 0.00 44 1012.0
20260905211559 100 72 2.0 7.0 0.00 0.00 0.00 43 1012.0
20260905211053 101 63 1.0 7.0 0.00 0.00 0.00 42 1012.1
20260905210553 101 0 1.0 7.0 0.00 0.00 0.00 41 1012.0
20260905210113 103 0 0.0 4.0 0.00 0.00 0.00 39 1012.0
20260905205552 105 0 0.0 2.0 0.00 0.00 0.00 37 1012.2
20260905205053 105 0 0.0 3.0 0.00 0.00 0.00 36 1011.9
20260905204604 105 0 0.0 3.0 0.00 0.00 0.00 37 1011.9
20260905204055 105 0 0.0 3.0 0.00 0.00 0.00 35 1012.1
20260905203555 105 0 0.0 1.0 0.00 0.00 0.00 38 1011.9
20260905203059 105 0 0.0 1.0 0.00 0.00 0.00 37 1012.2
20260905202552 105 0 0.0 3.0 0.00 0.00 0.00 35 1012.1
20260905202052 105 0 0.0 3.0 0.00 0.00 0.00 36 1012.3
20260905201605 104 0 0.0 4.0 0.00 0.00 0.00 37 1012.3
20260905201052 104 0 0.0 4.0 0.00 0.00 0.00 36 1012.4
20260905200552 104 47 0.0 2.0 0.00 0.00 0.00 37 1012.3
20260905200135 104 0 0.0 3.0 0.00 0.00 0.00 38 1012.3
20260905195555 104 77 0.0 3.0 0.00 0.00 0.00 38 1012.3
20260905195052 104 0 0.0 4.0 0.00 0.00 0.00 38 1012.5
20260905194616 103 0 0.0 4.0 0.00 0.00 0.00 39 1012.7
20260905194053 103 0 0.0 7.0 0.00 0.00 0.00 40 1012.9
20260905193551 103 75 0.0 8.0 0.00 0.00 0.00 39 1013.0
20260905193100 103 58 1.0 8.0 0.00 0.00 0.00 39 1013.1
20260905192553 102 0 0.0 5.0 0.00 0.00 0.00 39 1013.1
20260905192056 101 60 0.0 5.0 0.00 0.00 0.00 40 1013.1
20260905191602 102 0 0.0 5.0 0.00 0.00 0.00 38 1013.1
20260905191055 103 0 0.0 4.0 0.00 0.00 0.00 39 1013.3
20260905190553 103 0 0.0 4.0 0.00 0.00 0.00 37 1013.2
20260905185551 104 0 0.0 4.0 0.00 0.00 0.00 39 1013.3
20260905185055 103 0 0.0 5.0 0.00 0.00 0.00 41 1013.3
20260905184611 103 0 0.0 5.0 0.00 0.00 0.00 39 1013.4
20260905184052 103 0 0.0 2.0 0.00 0.00 0.00 41 1013.5
20260905183554 103 0 0.0 1.0 0.00 0.00 0.00 41 1013.5
20260905183112 103 0 0.0 4.0 0.00 0.00 0.00 42 1013.6
20260905182552 102 0 0.0 4.0 0.00 0.00 0.00 43 1013.6
20260905182054 102 68 0.0 6.0 0.00 0.00 0.00 43 1013.5
20260905181601 102 0 0.0 6.0 0.00 0.00 0.00 43 1013.6
20260905181052 102 0 1.0 6.0 0.00 0.00 0.00 42 1013.6
20260905180552 102 0 0.0 6.0 0.00 0.00 0.00 43 1013.7
20260905175553 101 0 0.0 3.0 0.00 0.00 0.00 44 1013.9
20260905175052 101 0 0.0 5.0 0.00 0.00 0.00 45 1013.8
20260905174602 101 0 0.0 5.0 0.00 0.00 0.00 46 1013.8
20260905174056 101 0 0.0 0.0 0.00 0.00 0.00 47 1013.9
20260905173554 101 0 0.0 2.0 0.00 0.00 0.00 45 1013.9
20260905173103 100 0 0.0 2.0 0.00 0.00 0.00 47 1014.1
20260905172552 100 0 0.0 5.0 0.00 0.00 0.00 46 1014.1
20260905172052 99 0 1.0 5.0 0.00 0.00 0.00 48 1014.3
20260905171607 100 0 0.0 4.0 0.00 0.00 0.00 47 1014.3
20260905171053 100 72 0.0 4.0 0.00 0.00 0.00 46 1014.4
20260905170553 100 0 0.0 3.0 0.00 0.00 0.00 47 1014.3
20260905170101 100 0 0.0 3.0 0.00 0.00 0.00 47 1014.4
20260905165552 100 0 0.0 0.0 0.00 0.00 0.00 46 1014.4
20260905165054 100 0 0.0 0.0 0.00 0.00 0.00 47 1014.5
20260905164605 99 0 0.0 0.0 0.00 0.00 0.00 50 1014.5
20260905164053 98 0 0.0 3.0 0.00 0.00 0.00 49 1014.6
20260905163552 98 0 0.0 3.0 0.00 0.00 0.00 49 1014.6
20260905163104 98 0 0.0 6.0 0.00 0.00 0.00 50 1014.7
20260905162552 98 0 1.0 6.0 0.00 0.00 0.00 50 1014.6
20260905162051 98 0 0.0 1.0 0.00 0.00 0.00 51 1014.6
20260905161601 98 0 0.0 0.0 0.00 0.00 0.00 51 1014.7
20260905161052 97 0 0.0 0.0 0.00 0.00 0.00 54 1014.7
20260905160554 96 0 0.0 1.0 0.00 0.00 0.00 54 1014.7
20260905160106 96 0 0.0 1.0 0.00 0.00 0.00 53 1014.7
20260905155553 95 0 0.0 5.0 0.00 0.00 0.00 55 1014.8
20260905155054 95 0 0.0 6.0 0.00 0.00 0.00 53 1014.9
20260905154602 95 77 0.0 9.0 0.00 0.00 0.00 54 1014.8
20260905154054 94 0 1.0 9.0 0.00 0.00 0.00 54 1014.9
20260905153552 94 101 0.0 5.0 0.00 0.00 0.00 55 1014.9
20260905153102 94 0 0.0 5.0 0.00 0.00 0.00 55 1014.9
20260905152552 93 0 0.0 6.0 0.00 0.00 0.00 56 1015.0
20260905152052 93 0 0.0 6.0 0.00 0.00 0.00 57 1014.9
20260905151602 93 56 0.0 5.0 0.00 0.00 0.00 56 1015.0
20260905151053 93 0 0.0 0.0 0.00 0.00 0.00 61 1014.9
20260905150553 92 0 0.0 0.0 0.00 0.00 0.00 61 1015.0
20260905150106 92 0 0.0 0.0 0.00 0.00 0.00 62 1014.9
20260905145555 91 0 0.0 0.0 0.00 0.00 0.00 63 1014.9
20260905145054 90 0 0.0 0.0 0.00 0.00 0.00 63 1014.9
20260905144604 90 0 0.0 0.0 0.00 0.00 0.00 64 1014.9
20260905144054 90 0 0.0 0.0 0.00 0.00 0.00 65 1014.9
20260905143554 89 0 0.0 0.0 0.00 0.00 0.00 66 1014.7
20260905143105 89 0 0.0 0.0 0.00 0.00 0.00 65 1014.8
20260905142558 88 0 0.0 0.0 0.00 0.00 0.00 66 1014.7
20260905142055 88 0 0.0 0.0 0.00 0.00 0.00 66 1014.8
20260905141557 87 0 0.0 0.0 0.00 0.00 0.00 68 1015.0
20260905141054 87 0 0.0 0.0 0.00 0.00 0.00 68 1015.0
20260905140557 87 0 0.0 0.0 0.00 0.00 0.00 68 1014.9
20260905140105 87 0 0.0 0.0 0.00 0.00 0.00 67 1014.9
20260905135554 87 0 0.0 0.0 0.00 0.00 0.00 68 1014.7
20260905135054 87 0 0.0 0.0 0.00 0.00 0.00 69 1014.8
20260905134611 86 0 0.0 0.0 0.00 0.00 0.00 70 1014.7
20260905134054 86 0 0.0 0.0 0.00 0.00 0.00 69 1014.7
20260905133554 86 0 0.0 0.0 0.00 0.00 0.00 70 1014.7
20260905133056 86 0 0.0 0.0 0.00 0.00 0.00 70 1014.5
20260905132554 85 0 0.0 0.0 0.00 0.00 0.00 72 1014.4
20260905132055 85 0 0.0 0.0 0.00 0.00 0.00 73 1014.5
20260905131611 84 0 0.0 0.0 0.00 0.00 0.00 73 1014.5
20260905131053 84 0 0.0 0.0 0.00 0.00 0.00 74 1014.5
20260905130558 83 0 0.0 0.0 0.00 0.00 0.00 75 1014.6
20260905125559 82 0 0.0 0.0 0.00 0.00 0.00 78 1014.4
20260905125054 82 0 0.0 0.0 0.00 0.00 0.00 79 1014.5
20260905124605 81 0 0.0 0.0 0.00 0.00 0.00 80 1014.4
20260905124053 80 0 0.0 0.0 0.00 0.00 0.00 81 1014.3
20260905123553 80 0 0.0 0.0 0.00 0.00 0.00 82 1014.3
20260905123108 79 0 0.0 0.0 0.00 0.00 0.00 83 1014.2
20260905122553 78 0 0.0 0.0 0.00 0.00 0.00 85 1014.1
20260905122057 78 0 0.0 0.0 0.00 0.00 0.00 86 1014.2
20260905121603 78 0 0.0 0.0 0.00 0.00 0.00 87 1014.3
20260905121054 78 0 0.0 0.0 0.00 0.00 0.00 88 1014.1
20260905120555 78 0 0.0 0.0 0.00 0.00 0.00 88 1014.1
20260905120100 78 0 0.0 0.0 0.00 0.00 0.00 88 1014.0
20260905115553 78 0 0.0 0.0 0.00 0.00 0.00 88 1013.9
20260905115053 78 0 0.0 0.0 0.00 0.00 0.00 88 1013.9
20260905114609 78 0 0.0 0.0 0.00 0.00 0.00 89 1013.9
20260905114052 77 0 0.0 0.0 0.00 0.00 0.00 89 1013.9
20260905113553 77 0 0.0 0.0 0.00 0.00 0.00 89 1013.8
20260905113108 77 0 0.0 0.0 0.00 0.00 0.00 89 1013.8
20260905112552 77 0 0.0 0.0 0.00 0.00 0.00 89 1013.7
20260905112056 77 0 0.0 0.0 0.00 0.00 0.00 89 1013.6
20260905111613 77 0 0.0 0.0 0.00 0.00 0.00 88 1013.8
20260905111052 77 0 0.0 0.0 0.00 0.00 0.00 88 1013.7
20260905110554 77 0 0.0 0.0 0.00 0.00 0.00 87 1013.6
20260905110104 78 0 0.0 0.0 0.00 0.00 0.00 87 1013.5
20260905105553 78 0 0.0 0.0 0.00 0.00 0.00 87 1013.5
20260905105053 78 0 0.0 0.0 0.00 0.00 0.00 87 1013.5
20260905104603 78 0 0.0 0.0 0.00 0.00 0.00 86 1013.6
20260905104056 78 0 0.0 0.0 0.00 0.00 0.00 85 1013.6
20260905103552 79 0 0.0 0.0 0.00 0.00 0.00 85 1013.7
20260905103100 79 0 0.0 0.0 0.00 0.00 0.00 84 1013.6
20260905102553 79 0 0.0 0.0 0.00 0.00 0.00 84 1013.6
20260905102053 79 0 0.0 0.0 0.00 0.00 0.00 84 1013.6
20260905101602 79 0 0.0 0.0 0.00 0.00 0.00 84 1013.7
20260905101051 79 0 0.0 0.0 0.00 0.00 0.00 84 1013.7
20260905100557 79 0 0.0 0.0 0.00 0.00 0.00 84 1013.7
20260905100107 79 0 0.0 0.0 0.00 0.00 0.00 84 1013.8
20260905095552 79 0 0.0 0.0 0.00 0.00 0.00 84 1013.8
20260905095053 79 0 0.0 0.0 0.00 0.00 0.00 84 1013.7
20260905094612 79 0 0.0 0.0 0.00 0.00 0.00 83 1013.7
20260905094056 79 0 0.0 0.0 0.00 0.00 0.00 83 1013.6
20260905093552 80 0 0.0 0.0 0.00 0.00 0.00 82 1013.6
20260905093101 80 0 0.0 0.0 0.00 0.00 0.00 82 1013.6
20260905092551 80 0 0.0 0.0 0.00 0.00 0.00 81 1013.7
20260905092052 80 0 0.0 0.0 0.00 0.00 0.00 81 1013.7
20260905091606 80 0 0.0 0.0 0.00 0.00 0.00 81 1013.8
20260905091053 80 0 0.0 0.0 0.00 0.00 0.00 81 1013.7
20260905090552 80 0 0.0 0.0 0.00 0.00 0.00 82 1013.6
20260905090103 79 0 0.0 0.0 0.00 0.00 0.00 82 1013.6
20260905085553 79 0 0.0 0.0 0.00 0.00 0.00 82 1013.7
20260905085056 79 0 0.0 0.0 0.00 0.00 0.00 82 1013.5
20260905084607 79 0 0.0 0.0 0.00 0.00 0.00 82 1013.6
20260905084053 79 0 0.0 0.0 0.00 0.00 0.00 82 1013.5
20260905083553 79 0 0.0 0.0 0.00 0.00 0.00 82 1013.6
20260905083058 79 0 0.0 0.0 0.00 0.00 0.00 82 1013.7
20260905082552 80 0 0.0 0.0 0.00 0.00 0.00 82 1013.6
20260905082056 80 0 0.0 0.0 0.00 0.00 0.00 81 1013.8
20260905081608 80 0 0.0 0.0 0.00 0.00 0.00 81 1013.9
20260905081051 80 0 0.0 0.0 0.00 0.00 0.00 81 1013.9
20260905080553 80 0 0.0 0.0 0.00 0.00 0.00 81 1013.9
20260905080107 80 0 0.0 0.0 0.00 0.00 0.00 81 1013.9
20260905075555 81 0 0.0 0.0 0.00 0.00 0.00 81 1013.9
20260905075053 81 0 0.0 0.0 0.00 0.00 0.00 81 1014.0
20260905074604 81 0 0.0 0.0 0.00 0.00 0.00 80 1013.9
20260905074053 81 0 0.0 0.0 0.00 0.00 0.00 80 1014.1
20260905073554 81 0 0.0 0.0 0.00 0.00 0.00 79 1014.0
20260905073100 81 0 0.0 0.0 0.00 0.00 0.00 79 1014.1
20260905072552 81 0 0.0 0.0 0.00 0.00 0.00 79 1014.1
20260905072051 81 0 0.0 0.0 0.00 0.00 0.00 79 1014.1
20260905071603 81 0 0.0 0.0 0.00 0.00 0.00 79 1014.0
20260905071059 81 0 0.0 0.0 0.00 0.00 0.00 79 1014.1
20260905070555 81 0 0.0 0.0 0.00 0.00 0.00 79 1014.2
20260905070105 81 0 0.0 0.0 0.00 0.00 0.00 79 1014.3
20260905065557 80 0 0.0 0.0 0.00 0.00 0.00 79 1014.3
20260905065052 81 0 0.0 0.0 0.00 0.00 0.00 79 1014.3
20260905064604 81 0 0.0 0.0 0.00 0.00 0.00 78 1014.1
20260905064051 81 0 0.0 0.0 0.00 0.00 0.00 78 1014.0
20260905063551 81 0 0.0 0.0 0.00 0.00 0.00 78 1014.1
20260905063112 81 0 0.0 0.0 0.00 0.00 0.00 77 1014.0
20260905062555 81 0 0.0 0.0 0.00 0.00 0.00 77 1014.1
20260905062052 81 0 0.0 0.0 0.00 0.00 0.00 77 1014.2
20260905061610 81 0 0.0 0.0 0.00 0.00 0.00 76 1014.2
20260905061055 82 0 0.0 0.0 0.00 0.00 0.00 76 1014.3
20260905060554 82 0 0.0 0.0 0.00 0.00 0.00 75 1014.1
20260905060059 82 0 0.0 0.0 0.00 0.00 0.00 75 1014.3
20260905055551 82 0 0.0 0.0 0.00 0.00 0.00 75 1014.1
20260905055052 82 0 0.0 0.0 0.00 0.00 0.00 75 1014.1
20260905054601 82 0 0.0 0.0 0.00 0.00 0.00 74 1014.1
20260905054052 82 0 0.0 0.0 0.00 0.00 0.00 74 1014.2
20260905053553 82 0 0.0 0.0 0.00 0.00 0.00 74 1014.4
20260905053058 83 0 0.0 0.0 0.00 0.00 0.00 74 1014.3
20260905052553 83 0 0.0 0.0 0.00 0.00 0.00 73 1014.4
20260905052053 83 0 0.0 0.0 0.00 0.00 0.00 73 1014.4
20260905051556 83 0 0.0 0.0 0.00 0.00 0.00 72 1014.4
20260905051053 83 0 0.0 0.0 0.00 0.00 0.00 72 1014.4
20260905050552 83 0 0.0 0.0 0.00 0.00 0.00 72 1014.3
20260905050106 83 0 0.0 0.0 0.00 0.00 0.00 73 1014.2
20260905045558 83 0 0.0 0.0 0.00 0.00 0.00 73 1014.1
20260905045052 83 0 0.0 0.0 0.00 0.00 0.00 73 1014.1
20260905044603 83 0 0.0 0.0 0.00 0.00 0.00 73 1014.1
20260905044057 84 0 0.0 0.0 0.00 0.00 0.00 72 1014.1
20260905043555 84 0 0.0 0.0 0.00 0.00 0.00 71 1014.1
20260905043126 84 0 0.0 0.0 0.00 0.00 0.00 71 1014.2
20260905042555 85 0 0.0 0.0 0.00 0.00 0.00 70 1014.2
20260905042052 85 0 0.0 0.0 0.00 0.00 0.00 70 1014.1
20260905041602 85 0 0.0 0.0 0.00 0.00 0.00 69 1014.0
20260905041053 85 0 0.0 0.0 0.00 0.00 0.00 68 1014.0
20260905040552 85 0 0.0 0.0 0.00 0.00 0.00 68 1014.0
20260905040119 85 0 0.0 0.0 0.00 0.00 0.00 69 1014.0
20260905035553 85 0 0.0 0.0 0.00 0.00 0.00 68 1014.0
20260905035054 85 0 0.0 0.0 0.00 0.00 0.00 68 1014.1
20260905034602 86 0 0.0 0.0 0.00 0.00 0.00 68 1014.1
20260905034055 86 0 0.0 0.0 0.00 0.00 0.00 67 1014.1
20260905033553 86 0 0.0 0.0 0.00 0.00 0.00 66 1014.2
20260905033101 86 0 0.0 0.0 0.00 0.00 0.00 66 1014.2
20260905032553 87 0 0.0 0.0 0.00 0.00 0.00 65 1014.3
20260905032052 87 0 0.0 0.0 0.00 0.00 0.00 65 1014.3